Weather History for McCook, NE

Change the Weather History Date:

Friday, October 28, 2011

  Actual Average Record
Temperature  
Mean Temperature 41 °F 47 °F  
Max Temperature 56 °F 62 °F 86 °F (1983)
Min Temperature 25 °F 32 °F 10 °F (1925)
Degree Days  
Heating Degree Days 24    
Moisture  
Dew Point 25 °F    
Average Humidity 64    
Maximum Humidity 93    
Minimum Humidity 30    
Precipitation  
Precipitation 0.00 in 0.05 in 1.32 in (2000)
Month to date precipitation 1.37 1.65  
Year to date precipitation 18.92 20.80  
Sea Level Pressure  
Sea Level Pressure 30.26 in    
Wind  
Wind Speed 7 mph (West)    
Max Wind Speed 13 mph    
Max Gust Speed -    
Visibility 10 miles    
Events      
T = Trace of Precipitation, MM = Missing Value Source: NWS Daily Summary

Daily Weather History Graph

Daily Weather History Graph

Search for Another Location

Airport:

Trip Planner

Search our weather history database for the weather conditions in past years. The results will help you decide how hot, cold, wet, or windy it might be!

Date:

Astronomy

Oct. 28, 2011 Rise Set
Actual Time 8:06 AM CDT 6:44 PM CDT
Civil Twilight 7:39 AM CDT 7:12 PM CDT
Nautical Twilight 7:07 AM CDT 7:44 PM CDT
Astronomical Twilight 6:35 AM CDT 8:16 PM CDT
Moon 10:24 AM CDT (10/28) 8:09 PM CDT (10/28)
Length of Visible Light 11h 33m
Length of Day
10h 37m
Waxing Crescent, 5% of the Moon is Illuminated
Oct 28
Waxing Crescent
Nov 2
First Quarter
Nov 10
Full
Nov 18
Last Quarter
Nov 25
New

Hourly Weather History & Observations

Time (CDT) Temp. Windchill Dew Point Humidity Pressure Visibility Wind Dir Wind Speed Gust Speed Precip Events Conditions
12:53 AM 28.9 °F 21.1 °F 24.1 °F 82% 30.22 in 10.0 mi West 8.1 mph - N/A   Clear
1:53 AM 30.0 °F 21.7 °F 25.0 °F 82% 30.22 in 10.0 mi West 9.2 mph - N/A   Clear
2:53 AM 26.6 °F 20.0 °F 24.8 °F 93% 30.19 in 9.0 mi WSW 5.8 mph - N/A   Clear
3:53 AM 28.0 °F 20.0 °F 24.1 °F 85% 30.24 in 9.0 mi West 8.1 mph - N/A   Clear
4:53 AM 26.1 °F 18.4 °F 23.0 °F 88% 30.25 in 9.0 mi West 6.9 mph - N/A   Clear
5:53 AM 28.0 °F 18.6 °F 23.0 °F 81% 30.27 in 9.0 mi West 10.4 mph - N/A   Clear
6:53 AM 27.0 °F 16.1 °F 23.0 °F 85% 30.28 in 10.0 mi West 12.7 mph - N/A   Clear
7:53 AM 26.1 °F 17.6 °F 21.9 °F 84% 30.32 in 9.0 mi West 8.1 mph - N/A   Clear
8:53 AM 27.0 °F 18.7 °F 23.0 °F 85% 30.34 in 8.0 mi West 8.1 mph - N/A   Clear
9:53 AM 32.0 °F 22.5 °F 25.0 °F 75% 30.35 in 10.0 mi West 12.7 mph - N/A   Clear
10:53 AM 37.0 °F 31.0 °F 28.0 °F 70% 30.35 in 9.0 mi WNW 8.1 mph - N/A   Clear
11:53 AM 42.8 °F 40.1 °F 30.2 °F 61% 30.29 in 10.0 mi WNW 4.6 mph - N/A   Clear
12:53 PM 48.0 °F - 28.0 °F 46% 30.32 in 10.0 mi Calm Calm - N/A   Clear
1:53 PM 52.0 °F - 28.0 °F 40% 30.29 in 10.0 mi WNW 3.5 mph - N/A   Clear
2:53 PM 54.0 °F - 26.1 °F 34% 30.26 in 10.0 mi Variable 3.5 mph - N/A   Clear
3:53 PM 55.9 °F - 25.0 °F 30% 30.24 in 10.0 mi West 8.1 mph - N/A   Clear
4:53 PM 55.9 °F - 25.0 °F 30% 30.24 in 10.0 mi WNW 4.6 mph - N/A   Clear
5:53 PM 54.0 °F - 26.1 °F 34% 30.24 in 10.0 mi West 3.5 mph - N/A   Clear
6:53 PM 53.1 °F - 25.0 °F 34% 30.24 in 10.0 mi SW 3.5 mph - N/A   Clear
7:53 PM 46.4 °F 42.9 °F 24.8 °F 43% 30.20 in 10.0 mi WSW 6.9 mph - N/A   Clear
8:53 PM 42.1 °F 37.7 °F 25.0 °F 51% 30.26 in 10.0 mi SW 6.9 mph - N/A   Clear
9:53 PM 36.0 °F 29.6 °F 26.1 °F 67% 30.25 in 10.0 mi WSW 8.1 mph - N/A   Clear
10:53 PM 32.0 °F 25.6 °F 26.1 °F 79% 30.25 in 10.0 mi WSW 6.9 mph - N/A   Clear
11:53 PM 30.9 °F 24.3 °F 26.1 °F 82% 30.22 in 10.0 mi WSW 6.9 mph - N/A   Clear